LiveATC.Net - Listen to live air traffic control over the Internet!
Airport/ARTCC Code
Frequency Search
(e.g., 124.400, 128.75)
Site-wide search
 


Browse LiveATC Feeds
Top 50 LiveATC Feeds
LiveATC Feed Map
Bad Weather Areas

LiveATC FAQ
Offer LiveATC feed
Contact LiveATC.net
Press Inquiries

LiveATC on iPhone
LiveATC on Android

Windows Phone
Windows 8/10

LiveATC Mobile
(Mobile browser)

ATC Audio Archives
Interesting Recordings

LiveATC Forums

Home Page
About LiveATC.net
Make a Donation
Terms of Use
Privacy Policy

Canadian Air Freqs

AIRMETs/SIGMETs

FAA Airport Status
Nat'l Airspace Status
Arrival Demand Charts


Server Software By:
Icecast.org
Liquidsoap

Select an area of interest:
U.S. Feeds: Class B Airports | Class C Airports | Class D/Other Airports | ARTCC (Centers)
International Feeds: Canada | Europe | Oceania | Asia | South America | North/Central America | Africa
Misc Feeds: HF Feeds
Search by ICAO/IATA airport code:   (e.g., kbos, kjfk, lax, eham, etc.)


Currently Available Live Feeds: 2489
Status Updated: Thu Oct 17 2019 14:12:04 UTC


NOTICE

Unauthorized use prohibited. See LiveATC.net Terms of Service

Asia Airport Feeds

 

OKBK Gnd/Twr/App/Radar (Archives)
Kuwait City, Kuwait

Feed Status: UP
Listen in your browser - HTML5 player(in browser, HTML5)
Click here to listen with your own player(launches your MP3 player)

OKBK 171400Z 12005KT CAVOK 34/10 Q1014 NOSIG


Listeners: 3 out of 1094 total

Kuwait Approach: 121.300
Kuwait Approach: 124.800
Kuwait Ground: 121.700
Kuwait Radar (Center): 125.300
Kuwait Tower: 118.300

OPKC Gnd/Twr/Radar (Archives)
Karachi, Pakistan

Feed Status: UP
Listen in your browser - HTML5 player(in browser, HTML5)
Click here to listen with your own player(launches your MP3 player)

OPKC 171255Z 24008KT 7000 NSC 32/16 Q1011 NOSIG


Listeners: 1 out of 1094 total

Karachi Ground: 121.600
Karachi Radar: 125.500
Karachi Tower: 118.300

OPLA ATIS (Archives)
Lahore, Pakistan

Feed Status: UP
Listen in your browser - HTML5 player(in browser, HTML5)
Click here to listen with your own player(launches your MP3 player)

OPLA 171159Z 08004KT 1500 R36/NA R18/NA FU SCT040 29/20 Q1012 RMID/NA RMK BECMG 2500 RMK QFE987 RMK A29.89


Listeners: 1 out of 1094 total

Lahore ATIS: 126.300

OPLA/OPLH Gnd/Twr/App (Archives)
Lahore, Pakistan

Feed Status: UP
Listen in your browser - HTML5 player(in browser, HTML5)
Click here to listen with your own player(launches your MP3 player)

OPLA 171159Z 08004KT 1500 R36/NA R18/NA FU SCT040 29/20 Q1012 RMID/NA RMK BECMG 2500 RMK QFE987 RMK A29.89


Listeners: 2 out of 1094 total

Lahore Approach: 121.300
Lahore Approach: 125.300
Lahore Control: 127.500
Lahore Ground: 118.400
Lahore Tower: 118.100
Lahore Tower: 121.800
Walton (OPLH) Tower: 119.400

OPLA/OPLH Gnd/Twr/App (Archives)
Lahore, Pakistan

Feed Status: UP
Listen in your browser - HTML5 player(in browser, HTML5)
Click here to listen with your own player(launches your MP3 player)

OPLA 171159Z 08004KT 1500 R36/NA R18/NA FU SCT040 29/20 Q1012 RMID/NA RMK BECMG 2500 RMK QFE987 RMK A29.89


Listeners: 2 out of 1094 total

Lahore Approach: 121.300
Lahore Approach: 125.300
Lahore Control: 127.500
Lahore Ground: 118.400
Lahore Tower: 118.100
Lahore Tower: 121.800
Walton (OPLH) Tower: 119.400

RCTP Approach (Archives)
Taipei, Taiwan

Feed Status: UP
Listen in your browser - HTML5 player(in browser, HTML5)
Click here to listen with your own player(launches your MP3 player)

RCTP 171330Z 06009KT 9999 FEW020 22/16 Q1019 NOSIG RMK A3010

RCTP Flight Activity (Flightaware)

Listeners: 1 out of 1094 total

Emergency/Guard: 121.500
Taipei Approach: 125.100
Taipei Approach: 125.600
Taipei Approach: 128.500

RCTP Tower (Archives)
Taipei, Taiwan

Feed Status: UP
Listen in your browser - HTML5 player(in browser, HTML5)
Click here to listen with your own player(launches your MP3 player)

RCTP 171330Z 06009KT 9999 FEW020 22/16 Q1019 NOSIG RMK A3010

RCTP Flight Activity (Flightaware)

Listeners: 1 out of 1094 total

Taipei Tower: 118.700

RJAA Approach (Archives)
Tokyo, Japan

Feed Status: UP
Listen in your browser - HTML5 player(in browser, HTML5)
Click here to listen with your own player(launches your MP3 player)

RJAA 171330Z 01010KT 9999 FEW015 BKN050 18/15 Q1026 NOSIG RMK 1CU015 7SC050 A3030

RJAA Flight Activity (Flightaware)

Listeners: 3 out of 1094 total

Tokyo Approach: 124.400
Tokyo Approach: 127.700

RJAA Clearance Delivery (Archives)
Tokyo, Japan

Feed Status: UP
Listen in your browser - HTML5 player(in browser, HTML5)
Click here to listen with your own player(launches your MP3 player)

RJAA 171330Z 01010KT 9999 FEW015 BKN050 18/15 Q1026 NOSIG RMK 1CU015 7SC050 A3030

RJAA Flight Activity (Flightaware)

Listeners: 0 out of 1094 total

Narita Clearance Delivery (Asia/Pacific): 121.650
Narita Clearance Delivery (US/Europe): 121.900

RJAA Clearance Delivery #1 (Archives)
Tokyo, Japan

Feed Status: UP
Listen in your browser - HTML5 player(in browser, HTML5)
Click here to listen with your own player(launches your MP3 player)

RJAA 171330Z 01010KT 9999 FEW015 BKN050 18/15 Q1026 NOSIG RMK 1CU015 7SC050 A3030

RJAA Flight Activity (Flightaware)

Listeners: 0 out of 1094 total

Narita Clearance Delivery (Asia/Pacific): 121.650

RJAA Clearance Delivery #2 (Archives)
Tokyo, Japan

Feed Status: UP
Listen in your browser - HTML5 player(in browser, HTML5)
Click here to listen with your own player(launches your MP3 player)

RJAA 171330Z 01010KT 9999 FEW015 BKN050 18/15 Q1026 NOSIG RMK 1CU015 7SC050 A3030

RJAA Flight Activity (Flightaware)

Listeners: 0 out of 1094 total

Narita Clearance Delivery (US/Europe): 121.900

RJAA Company Channels (Archives)
Tokyo, Japan

Feed Status: UP
Listen in your browser - HTML5 player(in browser, HTML5)
Click here to listen with your own player(launches your MP3 player)

RJAA 171330Z 01010KT 9999 FEW015 BKN050 18/15 Q1026 NOSIG RMK 1CU015 7SC050 A3030

RJAA Flight Activity (Flightaware)

Listeners: 3 out of 1094 total

Ops: 130.450
Ops: 130.550
Ops: 130.900
Ops: 131.025
Ops: 131.100
Ops: 131.200
Ops: 131.700
Ops: 131.750

RJAA Departure (Archives)
Tokyo, Japan

Feed Status: UP
Listen in your browser - HTML5 player(in browser, HTML5)
Click here to listen with your own player(launches your MP3 player)

RJAA 171330Z 01010KT 9999 FEW015 BKN050 18/15 Q1026 NOSIG RMK 1CU015 7SC050 A3030

RJAA Flight Activity (Flightaware)

Listeners: 0 out of 1094 total

Tokyo Departure: 119.600
Tokyo Departure: 124.200

RJAA Departure #1 (Archives)
Tokyo, Japan

Feed Status: UP
Listen in your browser - HTML5 player(in browser, HTML5)
Click here to listen with your own player(launches your MP3 player)

RJAA 171330Z 01010KT 9999 FEW015 BKN050 18/15 Q1026 NOSIG RMK 1CU015 7SC050 A3030

RJAA Flight Activity (Flightaware)

Listeners: 0 out of 1094 total

Tokyo Departure: 124.200

RJAA Departure #2 (Archives)
Tokyo, Japan

Feed Status: UP
Listen in your browser - HTML5 player(in browser, HTML5)
Click here to listen with your own player(launches your MP3 player)

RJAA 171330Z 01010KT 9999 FEW015 BKN050 18/15 Q1026 NOSIG RMK 1CU015 7SC050 A3030

RJAA Flight Activity (Flightaware)

Listeners: 0 out of 1094 total

Tokyo Departure: 119.600

RJAA Emergency/Guard (Archives)
Tokyo, Japan

Feed Status: UP
Listen in your browser - HTML5 player(in browser, HTML5)
Click here to listen with your own player(launches your MP3 player)

RJAA 171330Z 01010KT 9999 FEW015 BKN050 18/15 Q1026 NOSIG RMK 1CU015 7SC050 A3030

RJAA Flight Activity (Flightaware)

Listeners: 0 out of 1094 total

Emergency/Guard: 121.500

RJAA Ground #1 (Archives)
Tokyo, Japan

Feed Status: UP
Listen in your browser - HTML5 player(in browser, HTML5)
Click here to listen with your own player(launches your MP3 player)

RJAA 171330Z 01010KT 9999 FEW015 BKN050 18/15 Q1026 NOSIG RMK 1CU015 7SC050 A3030

RJAA Flight Activity (Flightaware)

Listeners: 0 out of 1094 total

Narita Ground: 121.850

RJAA Ground #2 (Archives)
Tokyo, Japan

Feed Status: UP
Listen in your browser - HTML5 player(in browser, HTML5)
Click here to listen with your own player(launches your MP3 player)

RJAA 171330Z 01010KT 9999 FEW015 BKN050 18/15 Q1026 NOSIG RMK 1CU015 7SC050 A3030

RJAA Flight Activity (Flightaware)

Listeners: 2 out of 1094 total

Narita Ground: 121.950

RJAA Radar (Archives)
Tokyo, Japan

Feed Status: UP
Listen in your browser - HTML5 player(in browser, HTML5)
Click here to listen with your own player(launches your MP3 player)

RJAA 171330Z 01010KT 9999 FEW015 BKN050 18/15 Q1026 NOSIG RMK 1CU015 7SC050 A3030

RJAA Flight Activity (Flightaware)

Listeners: 0 out of 1094 total

Tokyo Radar: 120.200

RJAA Ramp #1 (Archives)
Tokyo, Japan

Feed Status: UP
Listen in your browser - HTML5 player(in browser, HTML5)
Click here to listen with your own player(launches your MP3 player)

RJAA 171330Z 01010KT 9999 FEW015 BKN050 18/15 Q1026 NOSIG RMK 1CU015 7SC050 A3030

RJAA Flight Activity (Flightaware)

Listeners: 0 out of 1094 total

Narita Ramp: 121.600

RJAA Ramp #2 (Archives)
Tokyo, Japan

Feed Status: UP
Listen in your browser - HTML5 player(in browser, HTML5)
Click here to listen with your own player(launches your MP3 player)

RJAA 171330Z 01010KT 9999 FEW015 BKN050 18/15 Q1026 NOSIG RMK 1CU015 7SC050 A3030

RJAA Flight Activity (Flightaware)

Listeners: 0 out of 1094 total

Narita Ramp: 121.750

RJAA TCA (Archives)
Tokyo, Japan

Feed Status: UP
Listen in your browser - HTML5 player(in browser, HTML5)
Click here to listen with your own player(launches your MP3 player)

RJAA 171330Z 01010KT 9999 FEW015 BKN050 18/15 Q1026 NOSIG RMK 1CU015 7SC050 A3030

RJAA Flight Activity (Flightaware)

Listeners: 0 out of 1094 total

Tokyo TCA (Terminal Control Area): 119.450

RJAA Tokyo Control (Archives)
Tokyo, Japan

Feed Status: UP
Listen in your browser - HTML5 player(in browser, HTML5)
Click here to listen with your own player(launches your MP3 player)

RJAA 171330Z 01010KT 9999 FEW015 BKN050 18/15 Q1026 NOSIG RMK 1CU015 7SC050 A3030

RJAA Flight Activity (Flightaware)

Listeners: 0 out of 1094 total

Tokyo Control: 125.900

RJAA Tower #1 (Archives)
Tokyo, Japan

Feed Status: UP
Listen in your browser - HTML5 player(in browser, HTML5)
Click here to listen with your own player(launches your MP3 player)

RJAA 171330Z 01010KT 9999 FEW015 BKN050 18/15 Q1026 NOSIG RMK 1CU015 7SC050 A3030

RJAA Flight Activity (Flightaware)

Listeners: 2 out of 1094 total

Narita Tower (Rwy 16R/34L): 118.200

RJAA Tower #2 (Archives)
Tokyo, Japan

Feed Status: UP
Listen in your browser - HTML5 player(in browser, HTML5)
Click here to listen with your own player(launches your MP3 player)

RJAA 171330Z 01010KT 9999 FEW015 BKN050 18/15 Q1026 NOSIG RMK 1CU015 7SC050 A3030

RJAA Flight Activity (Flightaware)

Listeners: 3 out of 1094 total

Narita Tower (Rwy 16L/34R): 118.350

RJOO Tower (Archives)
Osaka, Japan

Feed Status: UP
Listen in your browser - HTML5 player(in browser, HTML5)
Click here to listen with your own player(launches your MP3 player)

RJOO 171100Z 35011KT 9999 FEW030 SCT060 BKN140 20/15 Q1022

RJOO Flight Activity (Flightaware)

Listeners: 2 out of 1094 total

Osaka Tower: 118.100

RJSF RDO (Archives)
Sukagawa, Japan

Feed Status: UP
Listen in your browser - HTML5 player(in browser, HTML5)
Click here to listen with your own player(launches your MP3 player)

RJSF 171100Z 05004KT 9999 FEW030 BKN040 14/10 Q1026

RJSF Flight Activity (Flightaware)

Listeners: 0 out of 1094 total

Fukushima Radio: 118.050

RJTT App/Dep (Archives)
Tokyo, Japan

Feed Status: UP
Listen in your browser - HTML5 player(in browser, HTML5)
Click here to listen with your own player(launches your MP3 player)

RJTT 171330Z 35011KT 9999 -RA FEW010 BKN030 17/15 Q1026 NOSIG RMK 1CU010 7SC030 A3030

RJTT Flight Activity (Flightaware)

Listeners: 21 out of 1094 total

Tokyo Approach: 119.100
Tokyo Approach: 119.400
Tokyo Departure: 120.800
Tokyo Departure: 126.000

RJTT Approach (Archives)
Tokyo, Japan

Feed Status: UP
Listen in your browser - HTML5 player(in browser, HTML5)
Click here to listen with your own player(launches your MP3 player)

RJTT 171330Z 35011KT 9999 -RA FEW010 BKN030 17/15 Q1026 NOSIG RMK 1CU010 7SC030 A3030

RJTT Flight Activity (Flightaware)

Listeners: 17 out of 1094 total

Tokyo Approach: 119.100
Tokyo Approach: 119.400

RJTT ATIS (Archives)
Tokyo, Japan

Feed Status: UP
Listen in your browser - HTML5 player(in browser, HTML5)
Click here to listen with your own player(launches your MP3 player)

RJTT 171330Z 35011KT 9999 -RA FEW010 BKN030 17/15 Q1026 NOSIG RMK 1CU010 7SC030 A3030

RJTT Flight Activity (Flightaware)

Listeners: 1 out of 1094 total

Tokyo ATIS: 128.800

RJTT Company Channels
Tokyo, Japan

Feed Status: DOWN
Offline since: 2019-10-10 16:00:23 UTC

RJTT 171330Z 35011KT 9999 -RA FEW010 BKN030 17/15 Q1026 NOSIG RMK 1CU010 7SC030 A3030

Company TBD: 128.500
Company TBD: 131.850
Company TBD: 129.725
Company TBD: 129.700
Company TBD: 131.900
Company TBD: 129.850
Company TBD: 128.975
Company TBD: 123.675
Company TBD: 132.075

RJTT Del/Ground (Archives)
Tokyo, Japan

Feed Status: UP
Listen in your browser - HTML5 player(in browser, HTML5)
Click here to listen with your own player(launches your MP3 player)

RJTT 171330Z 35011KT 9999 -RA FEW010 BKN030 17/15 Q1026 NOSIG RMK 1CU010 7SC030 A3030

RJTT Flight Activity (Flightaware)

Listeners: 0 out of 1094 total

Tokyo Clearance Delivery: 121.825
Tokyo Ground: 121.700
Tokyo Ground: 118.225
Tokyo Ground: 121.625
Tokyo Ground: 121.975

RJTT Del/Twr/TCA/Gnd (Archives)
Tokyo, Japan

Feed Status: UP
Listen in your browser - HTML5 player(in browser, HTML5)
Click here to listen with your own player(launches your MP3 player)

RJTT 171330Z 35011KT 9999 -RA FEW010 BKN030 17/15 Q1026 NOSIG RMK 1CU010 7SC030 A3030

RJTT Flight Activity (Flightaware)

Listeners: 5 out of 1094 total

Tokyo Clearance Delivery: 121.825
Tokyo Ground: 121.975
Tokyo Ground: 121.625
Tokyo Ground: 121.700
Tokyo Ground: 118.225
Tokyo TCA: 124.750
Tokyo Tower: 118.100
Tokyo Tower: 118.575
Tokyo Tower: 118.725
Tokyo Tower: 124.350

RJTT Departure (Archives)
Tokyo, Japan

Feed Status: UP
Listen in your browser - HTML5 player(in browser, HTML5)
Click here to listen with your own player(launches your MP3 player)

RJTT 171330Z 35011KT 9999 -RA FEW010 BKN030 17/15 Q1026 NOSIG RMK 1CU010 7SC030 A3030

RJTT Flight Activity (Flightaware)

Listeners: 0 out of 1094 total

Tokyo Departure: 120.800
Tokyo Departure: 126.000

RJTT Tokyo Control
Tokyo, Japan

Feed Status: DOWN
Offline since: 2019-10-10 16:00:23 UTC

RJTT 171330Z 35011KT 9999 -RA FEW010 BKN030 17/15 Q1026 NOSIG RMK 1CU010 7SC030 A3030

Tokyo Control: 133.700
Tokyo Control: 125.900
Tokyo Control: 120.500

RJTT Twr/TCA (Archives)
Tokyo, Japan

Feed Status: UP
Listen in your browser - HTML5 player(in browser, HTML5)
Click here to listen with your own player(launches your MP3 player)

RJTT 171330Z 35011KT 9999 -RA FEW010 BKN030 17/15 Q1026 NOSIG RMK 1CU010 7SC030 A3030

RJTT Flight Activity (Flightaware)

Listeners: 10 out of 1094 total

Tokyo TCA: 124.750
Tokyo Tower: 118.100
Tokyo Tower: 118.575
Tokyo Tower: 118.725
Tokyo Tower: 124.350

RJTY Approach (Archives)
Tokyo, Japan

Feed Status: UP
Listen in your browser - HTML5 player(in browser, HTML5)
Click here to listen with your own player(launches your MP3 player)

RJTY 171356Z AUTO 36004KT 6SM BR SCT004 OVC011 15/15 A3036 RMK AO2 DZE1256RAB1256E02RAB05E06DZB06E16DZB27E44 CIG 003 RWY18 SLP284 P0002 T01520152 FZRANO $

RJTY Flight Activity (Flightaware)

Listeners: 3 out of 1094 total

Yokota Approach: 118.300
Yokota APproach: 123.800
Yokota Approach: 120.700

RJTY ATIS (Archives)
Tokyo, Japan

Feed Status: UP
Listen in your browser - HTML5 player(in browser, HTML5)
Click here to listen with your own player(launches your MP3 player)

RJTY 171356Z AUTO 36004KT 6SM BR SCT004 OVC011 15/15 A3036 RMK AO2 DZE1256RAB1256E02RAB05E06DZB06E16DZB27E44 CIG 003 RWY18 SLP284 P0002 T01520152 FZRANO $

RJTY Flight Activity (Flightaware)

Listeners: 0 out of 1094 total

Yokota ATIS: 126.400

RJTY Ground (Archives)
Tokyo, Japan

Feed Status: UP
Listen in your browser - HTML5 player(in browser, HTML5)
Click here to listen with your own player(launches your MP3 player)

RJTY 171356Z AUTO 36004KT 6SM BR SCT004 OVC011 15/15 A3036 RMK AO2 DZE1256RAB1256E02RAB05E06DZB06E16DZB27E44 CIG 003 RWY18 SLP284 P0002 T01520152 FZRANO $

RJTY Flight Activity (Flightaware)

Listeners: 0 out of 1094 total

Yokota Ground: 133.200

RJTY Ground/Tower (Archives)
Tokyo, Japan

Feed Status: UP
Listen in your browser - HTML5 player(in browser, HTML5)
Click here to listen with your own player(launches your MP3 player)

RJTY 171356Z AUTO 36004KT 6SM BR SCT004 OVC011 15/15 A3036 RMK AO2 DZE1256RAB1256E02RAB05E06DZB06E16DZB27E44 CIG 003 RWY18 SLP284 P0002 T01520152 FZRANO $

RJTY Flight Activity (Flightaware)

Listeners: 0 out of 1094 total

Yokota Ground: 133.200
Yokota Tower: 134.300

RJTY Tower (Archives)
Tokyo, Japan

Feed Status: UP
Listen in your browser - HTML5 player(in browser, HTML5)
Click here to listen with your own player(launches your MP3 player)

RJTY 171356Z AUTO 36004KT 6SM BR SCT004 OVC011 15/15 A3036 RMK AO2 DZE1256RAB1256E02RAB05E06DZB06E16DZB27E44 CIG 003 RWY18 SLP284 P0002 T01520152 FZRANO $

RJTY Flight Activity (Flightaware)

Listeners: 0 out of 1094 total

Yokota Tower: 134.300

RKSG Gnd/Twr/App (Archives)
Pyeongtaek, Korea, Republic of

Feed Status: UP
Listen in your browser - HTML5 player(in browser, HTML5)
Click here to listen with your own player(launches your MP3 player)

RKSG 171356Z 08004KT 5SM HZ CLR 14/09 A3025 RMK AO2A SLP247 T01350135 $

RKSG Flight Activity (Flightaware)

Listeners: 1 out of 1094 total

Desiderio Final: 255.800
Desiderio GCA: 226.800
Desiderio GCA: 127.000
Desiderio Ground (Camp Humphreys A-511 AAF): 119.500
Desiderio Ground UHF: 229.700
Desiderio Ops: 294.100
Desiderio Tower (Camp Humphreys A-511 AAF): 122.500
Desiderio Tower UHF: 257.800

RKRR Incheon Control (Archives)
Incheon, Korea, Republic of

Feed Status: UP
Listen in your browser - HTML5 player(in browser, HTML5)
Click here to listen with your own player(launches your MP3 player)

RKSI 171330Z 11003KT 090V150 CAVOK 15/08 Q1024 NOSIG

RKSI Flight Activity (Flightaware)

Listeners: 0 out of 1094 total

Incheon Control North Sector (Primary): 128.700
Incheon Control North Sector (Secondary): 132.800
Incheon Control Northwest Sector (Primary): 126.175
Incheon Control Northwest Sector (Secondary): 123.725

RKSO Gnd/Twr/App (Archives)
Pyeongtaek, Korea, Republic of

Feed Status: UP
Listen in your browser - HTML5 player(in browser, HTML5)
Click here to listen with your own player(launches your MP3 player)

RKSO 171358Z 07005KT 7SM BKN150 11/10 A3026 RMK AO2A SLP250 T01050098 $

RKSO Flight Activity (Flightaware)

Listeners: 1 out of 1094 total

25 FS Ops: 229.000
36FS Ops: 371.300
Osan Air Base Approach/Departure: 127.900
Osan Air Base Approach/Departure: 133.650
Osan Air Base Ground: 132.450
Osan Air Base Tower: 122.100
Osan App/Dep UHF: 306.600
Osan App/Dep UHF: 234.300
Osan App/Dep UHF (possibly inactive): 306.300
Osan App/Dep UHF (possibly inactive): 363.100
Osan Ground UHF: 253.700
Osan SAR: 282.800
Osan SAR: 381.000
Osan SOF: 299.800
Osan Tower UHF: 308.800
Stallion Ops: 276.200

ROAH Gnd/Twr/App (Archives)
Okinawa, Japan

Feed Status: UP
Listen in your browser - HTML5 player(in browser, HTML5)
Click here to listen with your own player(launches your MP3 player)

RODN 171356Z AUTO 19005KT 10SM BKN015 BKN023 BKN035 OVC049 25/23 A2996 RMK AO2 DZB12E14RAB14E28DZB28E31 CIG 015V023 BKN015 V SCT CIG 014 RWY05 SLP151 P0002 T02460232 $

RODN Flight Activity (Flightaware)

Listeners: 1 out of 1094 total


ROAH Naha ACC (Archives)
Okinawa, Japan

Feed Status: UP
Listen in your browser - HTML5 player(in browser, HTML5)
Click here to listen with your own player(launches your MP3 player)

RODN 171356Z AUTO 19005KT 10SM BKN015 BKN023 BKN035 OVC049 25/23 A2996 RMK AO2 DZB12E14RAB14E28DZB28E31 CIG 015V023 BKN015 V SCT CIG 014 RWY05 SLP151 P0002 T02460232 $

RODN Flight Activity (Flightaware)

Listeners: 1 out of 1094 total


RODN Gnd/Twr/App (Archives)
Okinawa, Japan

Feed Status: UP
Listen in your browser - HTML5 player(in browser, HTML5)
Click here to listen with your own player(launches your MP3 player)

RODN 171356Z AUTO 19005KT 10SM BKN015 BKN023 BKN035 OVC049 25/23 A2996 RMK AO2 DZB12E14RAB14E28DZB28E31 CIG 015V023 BKN015 V SCT CIG 014 RWY05 SLP151 P0002 T02460232 $

RODN Flight Activity (Flightaware)

Listeners: 0 out of 1094 total


ROTM Gnd/Twr (Archives)
Okinawa, Japan

Feed Status: UP
Listen in your browser - HTML5 player(in browser, HTML5)
Click here to listen with your own player(launches your MP3 player)

RODN 171356Z AUTO 19005KT 10SM BKN015 BKN023 BKN035 OVC049 25/23 A2996 RMK AO2 DZB12E14RAB14E28DZB28E31 CIG 015V023 BKN015 V SCT CIG 014 RWY05 SLP151 P0002 T02460232 $

RODN Flight Activity (Flightaware)

Listeners: 0 out of 1094 total


RPLL ACC 125.7 (Archives)
Manila, Philippines

Feed Status: UP
Listen in your browser - HTML5 player(in browser, HTML5)
Click here to listen with your own player(launches your MP3 player)

RPLL 171400Z 14004KT 060V200 9999 FEW025 BKN100 28/25 Q1011 NOSIG RMK A2985

RPLL Flight Activity (Flightaware)

Listeners: 0 out of 1094 total

Manila Control: 125.700

RPLL App/Dep 124.4 (Archives)
Manila, Philippines

Feed Status: UP
Listen in your browser - HTML5 player(in browser, HTML5)
Click here to listen with your own player(launches your MP3 player)

RPLL 171400Z 14004KT 060V200 9999 FEW025 BKN100 28/25 Q1011 NOSIG RMK A2985

RPLL Flight Activity (Flightaware)

Listeners: 0 out of 1094 total

Manila Approach/.Departure: 124.400

RPLL App/Dep 124.8 (Archives)
Manila, Philippines

Feed Status: UP
Listen in your browser - HTML5 player(in browser, HTML5)
Click here to listen with your own player(launches your MP3 player)

RPLL 171400Z 14004KT 060V200 9999 FEW025 BKN100 28/25 Q1011 NOSIG RMK A2985

RPLL Flight Activity (Flightaware)

Listeners: 1 out of 1094 total

Manila Approach/.Departure: 124.800

RPLL ATIS (Archives)
Manila, Philippines

Feed Status: UP
Listen in your browser - HTML5 player(in browser, HTML5)
Click here to listen with your own player(launches your MP3 player)

RPLL 171400Z 14004KT 060V200 9999 FEW025 BKN100 28/25 Q1011 NOSIG RMK A2985

RPLL Flight Activity (Flightaware)

Listeners: 0 out of 1094 total

Manila ATIS: 126.400

RPLL Clearance Delivery (Archives)
Manila, Philippines

Feed Status: UP
Listen in your browser - HTML5 player(in browser, HTML5)
Click here to listen with your own player(launches your MP3 player)

RPLL 171400Z 14004KT 060V200 9999 FEW025 BKN100 28/25 Q1011 NOSIG RMK A2985

RPLL Flight Activity (Flightaware)

Listeners: 0 out of 1094 total

Manila Clearance Delivery (Primary): 125.100
Manila Clearance Delivery (Secondary): 125.500

RPLL Ground (Archives)
Manila, Philippines

Feed Status: UP
Listen in your browser - HTML5 player(in browser, HTML5)
Click here to listen with your own player(launches your MP3 player)

RPLL 171400Z 14004KT 060V200 9999 FEW025 BKN100 28/25 Q1011 NOSIG RMK A2985

RPLL Flight Activity (Flightaware)

Listeners: 0 out of 1094 total

Manila Ground: 121.800

RPLL Ramp/Taxi (Archives)
Manila, Philippines

Feed Status: UP
Listen in your browser - HTML5 player(in browser, HTML5)
Click here to listen with your own player(launches your MP3 player)

RPLL 171400Z 14004KT 060V200 9999 FEW025 BKN100 28/25 Q1011 NOSIG RMK A2985

RPLL Flight Activity (Flightaware)

Listeners: 1 out of 1094 total

Manila Ramp/Taxi: 121.350
Manila Ramp/Taxi: 121.700

RPLL Tower (Archives)
Manila, Philippines

Feed Status: UP
Listen in your browser - HTML5 player(in browser, HTML5)
Click here to listen with your own player(launches your MP3 player)

RPLL 171400Z 14004KT 060V200 9999 FEW025 BKN100 28/25 Q1011 NOSIG RMK A2985

RPLL Flight Activity (Flightaware)

Listeners: 0 out of 1094 total

Manila Tower: 118.100

HF CWP/SEA (Archives)
Pyeongtaek, Korea, Republic of

Feed Status: UP
Listen in your browser - HTML5 player(in browser, HTML5)
Click here to listen with your own player(launches your MP3 player)


Listeners: 0 out of 1094 total

CWP 1 (Tokyo): 11.384
CWP 1/2 (Tokyo): 13.300
CWP-1/2 (San Francisco): 17.904
CWP-1/2 (Tokyo/Manila): 8.903
CWP-1/2 (Tokyo/San Francisco): 21.985
SEA-2 (Manila): 8.942

Receiver location: Seoul, Korea

UAAA Approach (Archives)
Almaty, Kazakhstan

Feed Status: UP
Listen in your browser - HTML5 player(in browser, HTML5)
Click here to listen with your own player(launches your MP3 player)

UAAA 171330Z VRB01MPS 9999 BKN033CB OVC100 11/07 Q1024 R23L/CLRD65 NOSIG

UAAA Flight Activity (Flightaware)

Listeners: 1 out of 1094 total

Almaty Approach: 124.800

UAAA Tower (Archives)
Almaty, Kazakhstan

Feed Status: UP
Listen in your browser - HTML5 player(in browser, HTML5)
Click here to listen with your own player(launches your MP3 player)

UAAA 171330Z VRB01MPS 9999 BKN033CB OVC100 11/07 Q1024 R23L/CLRD65 NOSIG

UAAA Flight Activity (Flightaware)

Listeners: 0 out of 1094 total

Almaty Tower: 119.400

UAAA Tower/Approach (Archives)
Almaty, Kazakhstan

Feed Status: UP
Listen in your browser - HTML5 player(in browser, HTML5)
Click here to listen with your own player(launches your MP3 player)

UAAA 171330Z VRB01MPS 9999 BKN033CB OVC100 11/07 Q1024 R23L/CLRD65 NOSIG

UAAA Flight Activity (Flightaware)

Listeners: 0 out of 1094 total

Almaty Approach: 124.800
Almaty Tower: 119.400

UNNT Gnd/Twr/App/Radar/Misc (Archives)
Novosibirsk, Russia

Feed Status: UP
Listen in your browser - HTML5 player(in browser, HTML5)
Click here to listen with your own player(launches your MP3 player)

UNNT 171330Z 25007MPS 9999 BKN011 OVC028 04/02 Q1007 R25/290160 R34/290160 NOSIG RMK QFE745/0994

UNNT Flight Activity (Flightaware)

Listeners: 6 out of 1094 total

ACC_Novosibirsk-Control [5th military channel]: 128.500
ACC_Novosibirsk-Control [Southeast]: 126.100
ACC_Novosibirsk-Control [West]: 127.000
GPA_Kristallik [Severniy airfield]: 123.425
GPA_Sernisiy [Chkalovskiy airfield]: 124.750
GPA_Tomsk Information 1: 134.500
MIL_3 [3rd military channel]: 130.750
MIL_Larek [Shilovo facility]: 123.750
MIL_Maneken [Chkalovskiy airfield]: 123.550
MIL_Novosibirsk-1 [1st military channel]: 124.000
MIL_Noyabr' 31: 124.900
MIL_Trimaran: 124.500
SP_Air-to-Air: 123.450
SP_Air-to-Air 2: 123.400
SP_Common backup frequency: 129.000
SP_Emergency: 121.500
SP_Emergency 2: 123.100
SP_Flyoff: 124.375
SURF_Boarding: 163.425
SURF_Duty chart: 163.800
SURF_O&D Service: 163.325
SURF_Search & Rescue: 164.000
SURF_Security: 163.750
SURF_Tower surf: 163.650
SURF_Vehicles: 163.850
UNNT_Backup frequency: 127.100
UNNT_Novosibirsk-Approach: 127.500
UNNT_Novosibirsk-Ground: 121.700
UNNT_Novosibirsk-Radar: 122.000
UNNT_Novosibirsk-Tower: 118.500
UNNT_Novosibirsk-Transit: 131.600
UNNT_S7 FOCC: 131.925

UNOO Gnd/Tower/App (Archives)
Omsk, Russia

Feed Status: UP
Listen in your browser - HTML5 player(in browser, HTML5)
Click here to listen with your own player(launches your MP3 player)

UNOO 171330Z 30005MPS 9999 BKN033CB 01/M03 Q1018 R25/250055 NOSIG RMK QFE755

UNOO Flight Activity (Flightaware)

Listeners: 0 out of 1094 total

Aerodrom Kalachevo: 123.300
Aerodrom Marianovka: 123.000
Emergency/Guard: 121.500
Novosibirsk Control (Sector 7): 132.500
Novosibirsk Control (Sector 8): 132.900
Omsk Approach (FL060-FL265): 131.200
Omsk Apron: 118.800
Omsk Start/Radar: 119.000
Omsk Taxiing: 121.700
Omsk Transit: 131.700
UNOS/OMSK-Severny: 124.000

UNTT Gnd/Info/Radar/Control (Archives)
Tomsk, Russia

Feed Status: UP
Listen in your browser - HTML5 player(in browser, HTML5)
Click here to listen with your own player(launches your MP3 player)

UNTT Flight Activity (Flightaware)

Listeners: 1 out of 1094 total

Common Backup Frequency: 129.000
Emergency/Guard: 121.500
Novosibirsk Control (Sector 2): 126.100
Novosibirsk Control (Sector 3): 129.300
Novosibirsk Control (Sector 5): 132.300
Tomsk Ground: 118.800
Tomsk Information 1: 134.500
Tomsk Krug (Radar): 127.300
Tomsk Transit: 131.875
Troynik (Golovino): 122.400

USTR Gnd/Twr/App (Archives)
Tyumen, Russia

Feed Status: UP
Listen in your browser - HTML5 player(in browser, HTML5)
Click here to listen with your own player(launches your MP3 player)

USTR 171330Z 30005MPS 9999 BKN043CB 01/M02 Q1022 R30/290060 R21/290060 TEMPO 2100 -SHSNRA BKN005 BKN015CB RMK QFE757/1009

USTR Flight Activity (Flightaware)

Listeners: 1 out of 1094 total

Tyumen Approach: 126.100
Tyumen Control: 132.600
Tyumen Control: 133.600
Tyumen Info (Regional): 133.400
Tyumen Start: 118.200
Tyumen Transit: 131.800

USUU Twr/App/Control
Kurgan, Russia

Feed Status: DOWN
Offline since: 2019-09-20 03:54:23 UTC

Aerodromnaya 50: 164.100
Baggage Handling: 164.025
Kurgan Approach: 120.300
Kurgan Tower: 134.300
Kurgan/USUU Transit: 131.700
Kurtamysh: 122.450
Ural Control Sector 4: 119.700
USUL Tower: 129.600

VCBI Director
Colombo, Sri Lanka

Feed Status: DOWN
Offline since: 2019-10-09 16:59:40 UTC

VCBI 171210Z 21004KT 140V250 9000 TS SCT017 SCT019CB 29/25 Q1008 NOSIG RMK N/NE/E/SE/SW

Colombo Director: 132.400

VHHH Approach 119.1 #1 (Archives)
Hong Kong, Hong Kong

Feed Status: UP
Listen in your browser - HTML5 player(in browser, HTML5)
Click here to listen with your own player(launches your MP3 player)

VHHH 171330Z 10008KT 070V150 9999 FEW030 26/19 Q1018 NOSIG

VHHH Flight Activity (Flightaware)

Listeners: 2 out of 1092 total

Hong Kong Approach: 119.100

VHHH ATIS (Archives)
Hong Kong, Hong Kong

Feed Status: UP
Listen in your browser - HTML5 player(in browser, HTML5)
Click here to listen with your own player(launches your MP3 player)

VHHH 171330Z 10008KT 070V150 9999 FEW030 26/19 Q1018 NOSIG

VHHH Flight Activity (Flightaware)

Listeners: 0 out of 1092 total

Hong Kong Arrival ATIS: 128.200

VHHH Clearance Delivery (Archives)
Hong Kong, Hong Kong

Feed Status: UP
Listen in your browser - HTML5 player(in browser, HTML5)
Click here to listen with your own player(launches your MP3 player)

VHHH 171330Z 10008KT 070V150 9999 FEW030 26/19 Q1018 NOSIG

VHHH Flight Activity (Flightaware)

Listeners: 1 out of 1092 total

Hong Kong Clearance Delivery: 129.900

VHHH Departure (Primary) (Archives)
Hong Kong, Hong Kong

Feed Status: UP
Listen in your browser - HTML5 player(in browser, HTML5)
Click here to listen with your own player(launches your MP3 player)

VHHH 171330Z 10008KT 070V150 9999 FEW030 26/19 Q1018 NOSIG

VHHH Flight Activity (Flightaware)

Listeners: 0 out of 1092 total

Hong Kong Departure: 123.800

VHHH Director #1 (Archives)
Hong Kong, Hong Kong

Feed Status: UP
Listen in your browser - HTML5 player(in browser, HTML5)
Click here to listen with your own player(launches your MP3 player)

VHHH 171330Z 10008KT 070V150 9999 FEW030 26/19 Q1018 NOSIG

VHHH Flight Activity (Flightaware)

Listeners: 0 out of 1092 total

Hong Kong Director: 119.500

VHHH Ground (Archives)
Hong Kong, Hong Kong

Feed Status: UP
Listen in your browser - HTML5 player(in browser, HTML5)
Click here to listen with your own player(launches your MP3 player)

VHHH 171330Z 10008KT 070V150 9999 FEW030 26/19 Q1018 NOSIG

VHHH Flight Activity (Flightaware)

Listeners: 1 out of 1092 total

Hong Kong Ground (North): 121.600
Hong Kong Ground (South): 122.550

VHHH Ground (North) (Archives)
Hong Kong, Hong Kong

Feed Status: UP
Listen in your browser - HTML5 player(in browser, HTML5)
Click here to listen with your own player(launches your MP3 player)

VHHH 171330Z 10008KT 070V150 9999 FEW030 26/19 Q1018 NOSIG

VHHH Flight Activity (Flightaware)

Listeners: 0 out of 1092 total

Hong Kong Ground (North): 121.600

VHHH Ground (South) (Archives)
Hong Kong, Hong Kong

Feed Status: UP
Listen in your browser - HTML5 player(in browser, HTML5)
Click here to listen with your own player(launches your MP3 player)

VHHH 171330Z 10008KT 070V150 9999 FEW030 26/19 Q1018 NOSIG

VHHH Flight Activity (Flightaware)

Listeners: 1 out of 1092 total

Hong Kong Ground (South): 122.550

VHHH Hong Kong Radar
Hong Kong, Hong Kong

Feed Status: DOWN
Offline since: 2019-10-05 01:18:06 UTC

VHHH 171330Z 10008KT 070V150 9999 FEW030 26/19 Q1018 NOSIG

Hong Kong Radar: 121.300
Hong Kong Radar: 118.925
Hong Kong Radar: 123.950

VTBS Approach (East) (Archives)
Bangkok, Thailand

Feed Status: UP
Listen in your browser - HTML5 player(in browser, HTML5)
Click here to listen with your own player(launches your MP3 player)

VTBS 171330Z 36004KT 9999 FEW020 28/24 Q1011 NOSIG

VTBS Flight Activity (Flightaware)

Listeners: 0 out of 1092 total

Bangkok Approach (East): 122.350

VTBS Approach (North) (Archives)
Bangkok, Thailand

Feed Status: UP
Listen in your browser - HTML5 player(in browser, HTML5)
Click here to listen with your own player(launches your MP3 player)

VTBS 171330Z 36004KT 9999 FEW020 28/24 Q1011 NOSIG

VTBS Flight Activity (Flightaware)

Listeners: 0 out of 1092 total

Bangkok Approach (North): 121.700

VTBS Approach 119.1 (Archives)
Bangkok, Thailand

Feed Status: UP
Listen in your browser - HTML5 player(in browser, HTML5)
Click here to listen with your own player(launches your MP3 player)

VTBS 171330Z 36004KT 9999 FEW020 28/24 Q1011 NOSIG

VTBS Flight Activity (Flightaware)

Listeners: 0 out of 1092 total

Bangkok Approach: 119.100

VTBS Approach 119.4 (Archives)
Bangkok, Thailand

Feed Status: UP
Listen in your browser - HTML5 player(in browser, HTML5)
Click here to listen with your own player(launches your MP3 player)

VTBS 171330Z 36004KT 9999 FEW020 28/24 Q1011 NOSIG

VTBS Flight Activity (Flightaware)

Listeners: 0 out of 1092 total

Bangkok Approach: 119.400

VTBS Approach 120.3 (Archives)
Bangkok, Thailand

Feed Status: UP
Listen in your browser - HTML5 player(in browser, HTML5)
Click here to listen with your own player(launches your MP3 player)

VTBS 171330Z 36004KT 9999 FEW020 28/24 Q1011 NOSIG

VTBS Flight Activity (Flightaware)

Listeners: 0 out of 1092 total

Bangkok Approach: 120.300

VTBS Approach/Arrival (Archives)
Bangkok, Thailand

Feed Status: UP
Listen in your browser - HTML5 player(in browser, HTML5)
Click here to listen with your own player(launches your MP3 player)

VTBS 171330Z 36004KT 9999 FEW020 28/24 Q1011 NOSIG

VTBS Flight Activity (Flightaware)

Listeners: 2 out of 1092 total

Bangkok Approach: 124.350
Bangkok Approach: 125.200
Bangkok Approach: 124.700
Bangkok Approach: 126.300
Bangkok Approach: 133.400
Bangkok Arrival (VTBD): 125.500

VTBS Arrival 121.1 (Archives)
Bangkok, Thailand

Feed Status: UP
Listen in your browser - HTML5 player(in browser, HTML5)
Click here to listen with your own player(launches your MP3 player)

VTBS 171330Z 36004KT 9999 FEW020 28/24 Q1011 NOSIG

VTBS Flight Activity (Flightaware)

Listeners: 0 out of 1092 total

Bangkok Arrival: 121.100

VTBS ATIS (Archives)
Bangkok, Thailand

Feed Status: UP
Listen in your browser - HTML5 player(in browser, HTML5)
Click here to listen with your own player(launches your MP3 player)

VTBS 171330Z 36004KT 9999 FEW020 28/24 Q1011 NOSIG

VTBS Flight Activity (Flightaware)

Listeners: 0 out of 1092 total

Bangkok D-ATIS: 133.600

VTBS Control (FIR) (Archives)
Bangkok, Thailand

Feed Status: UP
Listen in your browser - HTML5 player(in browser, HTML5)
Click here to listen with your own player(launches your MP3 player)

VTBS 171330Z 36004KT 9999 FEW020 28/24 Q1011 NOSIG

VTBS Flight Activity (Flightaware)

Listeners: 1 out of 1092 total

Bangkok FIR (Sector 3): 135.500

VTBS Departure (Archives)
Bangkok, Thailand

Feed Status: UP
Listen in your browser - HTML5 player(in browser, HTML5)
Click here to listen with your own player(launches your MP3 player)

VTBS 171330Z 36004KT 9999 FEW020 28/24 Q1011 NOSIG

VTBS Flight Activity (Flightaware)

Listeners: 1 out of 1092 total

Bangkok Departure: 119.250

VTBS Ground (East) (Archives)
Bangkok, Thailand

Feed Status: UP
Listen in your browser - HTML5 player(in browser, HTML5)
Click here to listen with your own player(launches your MP3 player)

VTBS 171330Z 36004KT 9999 FEW020 28/24 Q1011 NOSIG

VTBS Flight Activity (Flightaware)

Listeners: 0 out of 1092 total

Bangkok Ground (East): 121.650

VTBS Ground (Main) (Archives)
Bangkok, Thailand

Feed Status: UP
Listen in your browser - HTML5 player(in browser, HTML5)
Click here to listen with your own player(launches your MP3 player)

VTBS 171330Z 36004KT 9999 FEW020 28/24 Q1011 NOSIG

VTBS Flight Activity (Flightaware)

Listeners: 0 out of 1092 total

Bangkok Ground (Main): 121.750

VTBS Ground (West) (Archives)
Bangkok, Thailand

Feed Status: UP
Listen in your browser - HTML5 player(in browser, HTML5)
Click here to listen with your own player(launches your MP3 player)

VTBS 171330Z 36004KT 9999 FEW020 28/24 Q1011 NOSIG

VTBS Flight Activity (Flightaware)

Listeners: 0 out of 1092 total

Bangkok Ground (West): 121.950

VTBS Tower (Archives)
Bangkok, Thailand

Feed Status: UP
Listen in your browser - HTML5 player(in browser, HTML5)
Click here to listen with your own player(launches your MP3 player)

VTBS 171330Z 36004KT 9999 FEW020 28/24 Q1011 NOSIG

VTBS Flight Activity (Flightaware)

Listeners: 0 out of 1092 total

Bangkok Tower (Rwy 01L/19R): 119.000
Bangkok Tower (Rwy 01R/19L): 118.200

VTBS Tower (Rwy 01L/19R) (Archives)
Bangkok, Thailand

Feed Status: UP
Listen in your browser - HTML5 player(in browser, HTML5)
Click here to listen with your own player(launches your MP3 player)

VTBS 171330Z 36004KT 9999 FEW020 28/24 Q1011 NOSIG

VTBS Flight Activity (Flightaware)

Listeners: 0 out of 1092 total

Bangkok Tower (Rwy 01L/19R): 119.000

VTBS Tower (Rwy 01R/19L) (Archives)
Bangkok, Thailand

Feed Status: UP
Listen in your browser - HTML5 player(in browser, HTML5)
Click here to listen with your own player(launches your MP3 player)

VTBS 171330Z 36004KT 9999 FEW020 28/24 Q1011 NOSIG

VTBS Flight Activity (Flightaware)

Listeners: 0 out of 1092 total

Bangkok Tower (Rwy 01R/19L): 118.200

WAHH Approach
Yogyakarta, Indonesia

Feed Status: DOWN
Offline since: 2019-01-09 17:03:03 UTC

Adisutjipto Approach: 123.400

WBKK Gnd/Twr/App (Archives)
Kota Kinabalu, Malaysia

Feed Status: UP
Listen in your browser - HTML5 player(in browser, HTML5)
Click here to listen with your own player(launches your MP3 player)

WBKK 171330Z 11004KT 090V150 9999 FEW015 SCT140 BKN270 27/25 Q1009 NOSIG


Listeners: 0 out of 1092 total

Kinabalu Director: 119.100
Kinabalu Ground: 121.600
Kinabalu Radar: 126.100
Kinabalu Radar: 132.450
Kinabalu Tower: 118.300

WBKK Gnd/Twr/Radar/Control (Archives)
Kota Kinabalu, Malaysia

Feed Status: UP
Listen in your browser - HTML5 player(in browser, HTML5)
Click here to listen with your own player(launches your MP3 player)

WBKK 171330Z 11004KT 090V150 9999 FEW015 SCT140 BKN270 27/25 Q1009 NOSIG


Listeners: 1 out of 1092 total

Kinabalu Director: 119.100
Kinabalu Ground: 121.600
Kinabalu Radar: 126.100
Kinabalu Radar: 132.450
Kinabalu Radar: 128.300
Kinabalu Tower: 118.300

WBKS Approach (Archives)
Sandakan, Malaysia

Feed Status: UP
Listen in your browser - HTML5 player(in browser, HTML5)
Click here to listen with your own player(launches your MP3 player)

WBKS 171300Z VRB01KT 9999 FEW016 BKN300 26/24 Q1009


Listeners: 0 out of 1092 total

Sandakan Approach/Departure: 123.200

WBKS ATIS (Archives)
Sandakan, Malaysia

Feed Status: UP
Listen in your browser - HTML5 player(in browser, HTML5)
Click here to listen with your own player(launches your MP3 player)

WBKS 171300Z VRB01KT 9999 FEW016 BKN300 26/24 Q1009


Listeners: 0 out of 1092 total

Sandakan ATIS: 128.200

WBKS Emergency/Guard (Archives)
Sandakan, Malaysia

Feed Status: UP
Listen in your browser - HTML5 player(in browser, HTML5)
Click here to listen with your own player(launches your MP3 player)

WBKS 171300Z VRB01KT 9999 FEW016 BKN300 26/24 Q1009


Listeners: 0 out of 1092 total

Emergency/Guard: 121.500

WBKS Gnd/Twr/App/Guard (Archives)
Sandakan, Malaysia

Feed Status: UP
Listen in your browser - HTML5 player(in browser, HTML5)
Click here to listen with your own player(launches your MP3 player)

WBKS 171300Z VRB01KT 9999 FEW016 BKN300 26/24 Q1009


Listeners: 0 out of 1092 total

Emergency/Guard: 121.500
Sandakan Approach/Departure: 123.200
Sandakan Ground: 121.900
Sandakan Tower: 122.050

WBKS Ground (Archives)
Sandakan, Malaysia

Feed Status: UP
Listen in your browser - HTML5 player(in browser, HTML5)
Click here to listen with your own player(launches your MP3 player)

WBKS 171300Z VRB01KT 9999 FEW016 BKN300 26/24 Q1009


Listeners: 0 out of 1092 total

Sandakan Ground: 121.900

WBKS Tower (Archives)
Sandakan, Malaysia

Feed Status: UP
Listen in your browser - HTML5 player(in browser, HTML5)
Click here to listen with your own player(launches your MP3 player)

WBKS 171300Z VRB01KT 9999 FEW016 BKN300 26/24 Q1009


Listeners: 0 out of 1092 total

Sandakan Tower: 122.050

WMKB Radar (Archives)
Penang, Malaysia

Feed Status: UP
Listen in your browser - HTML5 player(in browser, HTML5)
Click here to listen with your own player(launches your MP3 player)

WMKB 171300Z VRB03KT 6000 -TSRA FEW010 FEW017CB SCT024 BKN260 25/24 Q1009 NOSIG


Listeners: 0 out of 1092 total

Butterworth Radar: 125.800

WMSA Del/Gnd/Twr/App (Archives)
Subang, Malaysia

Feed Status: UP
Listen in your browser - HTML5 player(in browser, HTML5)
Click here to listen with your own player(launches your MP3 player)

WMSA 171300Z 15003KT 120V190 6000 -TSRA FEW005 FEW017CB SCT024 25/25 Q1010 RETSRA


Listeners: 0 out of 1092 total

Lumpur Approach: 119.450
Lumpur Director: 124.200
Subang Clearance Delivery: 126.000
Subang Ground: 121.900
Subang Tower: 118.200

ZBAA Tower (Archives)
Beijing, China

Feed Status: UP
Listen in your browser - HTML5 player(in browser, HTML5)
Click here to listen with your own player(launches your MP3 player)

ZBAA 171330Z VRB02MPS 6000 NSC 13/10 Q1025 NOSIG


Listeners: 7 out of 1092 total

Beijing Tower (Rwy 01/19): 118.600

ZHNY Tower (Archives)
Nanyang, China

Feed Status: UP
Listen in your browser - HTML5 player(in browser, HTML5)
Click here to listen with your own player(launches your MP3 player)


Listeners: 3 out of 1092 total

Nanyang Tower: 118.500

ZYCY Tower
Chaoyang, China

Feed Status: DOWN
Offline since: 2019-10-09 12:20:06 UTC

ZYCY 140700Z 25002MPS CAVOK 29/16 Q1006 NOSIG

Chaoyang Tower: 118.350